Regional Weather Roundup
Issued by NWS

Home | Current Version | Previous Version | Text Only | Print | Product List | Glossary Off
Versions: 1 2 3 4 5 6 7 8 9 10 11 12 13 14 15 16 17 18 19 20 21 22 23 24 25 26 27 28 29 30 31 32 33 34 35 36 37 38 39 40 41 42 43 44 45 46 47 48 49 50

478
ASUS45 KTFX 270610
RWRMT
MONTANA REGIONAL WEATHER ROUNDUP
NATIONAL WEATHER SERVICE GREAT FALLS MT
1200 AM MDT TUE JUN 27 2017

NOTE: "FAIR" INDICATES FEW OR NO CLOUDS BELOW 12000 FEET WITH NO
SIGNIFICANT WEATHER AND/OR OBSTRUCTIONS TO VISIBILITY.

MTZ001>007-043-270700-
WEST OF THE DIVIDE

CITY           SKY/WX    TMP DP  RH WIND       PRES   REMARKS
KALISPELL      LGT RAIN  71  53  52 NW8       29.77R
MISSOULA       CLOUDY    75  48  38 SE15G23   29.86R
BUTTE          LGT RAIN  66  48  52 VRB7      30.04R
MULLAN PASS    CLOUDY    56  44  64 NW9G16    30.01F
ANACONDA         N/A     68  45  42 SW10G21   30.01R
DEER LODGE       N/A     68  48  49 W7        29.99R
EUREKA           N/A     64  55  72 CALM      29.79F
HAMILTON         N/A     63  55  77 SE9       29.93F
$$

MTZ008-052>055-270700-
SOUTHWEST MONTANA

CITY           SKY/WX    TMP DP  RH WIND       PRES   REMARKS
BOZEMAN        CLOUDY    74  44  34 W8        29.94R
DILLON         CLOUDY    65  46  50 NE8       30.00F
W YELLOWSTONE  CLOUDY    66  37  34 S18G43    30.03F
ENNIS          CLOUDY    63  50  63 E13       30.07R
THREE FORKS      N/A     74  43  32 CALM      29.93R
$$

MTZ009-010-012-014-046-048-049-054-270700-
EAST SLOPES AND CENTRAL MONTANA

CITY           SKY/WX    TMP DP  RH WIND       PRES   REMARKS
CUT BANK       CLOUDY    67  45  45 W8        29.75F
GREAT FALLS    CLOUDY    72  47  40 SE8       29.77F
MALMSTROM AFB  CLOUDY    66  50  55 S8        29.76F
HELENA         CLOUDY    74  49  41 SW7       29.87S
CHOTEAU          N/A     70  48  46 S6        29.81S
$$

MTZ011-013-016-021-045-047-050-051-270700-
NORTH CENTRAL MONTANA

CITY           SKY/WX    TMP DP  RH WIND       PRES   REMARKS
HAVRE          CLOUDY    62  55  77 SW6       29.68F
LEWISTOWN      CLOUDY    61  51  70 W6        29.80R
N BAR RANCH      N/A     72  37  28 SW12      29.83F
CHINOOK          N/A     66  52  59 CALM      29.67F
FORT BENTON      N/A    N/A N/A N/A MISG      29.73F
$$

MTZ017>020-022>027-061-062-270700-
NORTHEAST MONTANA

CITY           SKY/WX    TMP DP  RH WIND       PRES   REMARKS
GLASGOW        CLOUDY    75  40  28 E10       29.70F
JORDAN           N/A     74  43  32 SE17      29.73F
SIDNEY         CLOUDY    70  42  36 S12       29.81F
WOLF POINT     CLOUDY    79  37  22 S8        29.74F
MALTA          CLEAR     75  45  33 VRB5G14   29.67S
PLENTYWOOD       N/A     66  41  39 SE10      29.78F
POPLAR           N/A     73  39  29 S13G24    29.76S
$$

MTZ028>42-056>058-270700-
SOUTHCENTRAL AND SOUTHEAST MONTANA

CITY           SKY/WX    TMP DP  RH WIND       PRES   REMARKS
BAKER          CLOUDY    67  38  34 SE28G36   29.87F
BILLINGS       PTCLDY    78  42  27 SW6       29.76F
LIVINGSTON     CLOUDY    72  45  37 NW14      29.92R
MILES CITY     MOCLDY    74  38  27 SE18G26   29.76F
BIG TIMBER     CLEAR     72  39  30 W14       29.88R
FORSYTH          N/A     73  41  31 CALM      29.71F
ROUNDUP          N/A     77  39  25 NE1       29.71R
$$

REGIONAL REPORTS...DAKOTAS

CITY           SKY/WX    TMP DP  RH WIND       PRES   REMARKS
WILLISTON      CLOUDY    71  43  36 S9        29.82F
MINOT          PTCLDY    62  42  47 SE9       29.89F
DICKINSON      CLOUDY    62  36  37 S21G30    29.89F
BEACH            N/A     64  39  39 S22       29.89F
CROSBY           N/A     64  43  45 S18       29.81F
TIOGA            N/A     63  43  48 S17       29.86F
WATFORD CITY     N/A     68  41  37 S15G24    29.84F
BISMARCK       PTCLDY    62  38  40 S13       29.98F
GRAND FORKS    CLEAR     51  43  74 S7        30.00F
FARGO          CLEAR     56  40  55 S9        30.04F
BUFFALO SD       N/A     64  40  41 SE25G32   29.85F
RAPID CITY     CLEAR     57  40  52 S10       29.99F
$$

REGIONAL REPORTS...WYOMING/IDAHO/WASHINGTON

CITY           SKY/WX    TMP DP  RH WIND       PRES   REMARKS
GILLETTE         N/A     69  40  34 S24G32    29.91F
SHERIDAN       PTCLDY    59  48  67 VRB5      29.83F
BUFFALO WY     CLEAR     67  41  38 SE12      29.92F
CODY           CLOUDY    70  37  29 SW13      29.91F
YELLOWSTONE LA   N/A     60  36  40 W10G18    30.18R
IDAHO FALLS    CLOUDY    68  51  54 N13       29.90F
SALMON         PTCLDY    64  52  63 N7        29.97R
BOISE          PTCLDY    73  51  46 W6        29.84S
SPOKANE        CLOUDY    66  58  75 SE5       29.82R
$$

REGIONAL REPORTS...ALBERTA

CITY           SKY/WX    TMP DP  RH WIND       PRES   REMARKS
EDMONTON       PTCLDY    57  55  94 N24G32    29.56F
CALGARY        PTCLDY    70  43  37 W5        29.64S
LETHBRIDGE     CLEAR     70  46  43 W14G20    29.66S
MEDICINE HAT   CLEAR     63  54  72 W5        29.58F
WATERTON GATE    N/A     68  43  40 W20G31      N/A
CARDSTON         N/A     68  45  42 W6          N/A
MILK RIVER       N/A     64  48  55 W1          N/A
ONEFOUR          N/A     64  48  55 E3          N/A
$$

REGIONAL REPORTS...SASKATCHEWAN

CITY           SKY/WX    TMP DP  RH WIND       PRES   REMARKS
SWIFT CURRENT  CLEAR     64  43  45 S14       29.63F
REGINA         PTCLDY    61  45  55 SE18      29.75F
SASKATOON      PTCLDY    66  48  52 SE15G26   29.59F
ROCKGLEN         N/A     66  34  30 SE14        N/A
$$




USA.gov is the U.S. government's official web portal to all federal, state and local government web resources and services.